DL1VED Weather Reports


time (UTC)temp
C
wind
direction
speed
KPH
gust
KPH
rain 1hr
cm
rain 24hr
cm
rain mn
cm
humidity
%
barometer
mb
20260504171409 16 257 3.2 9.7 0.00 0.00 0.00 68 1012.6
20260504081409 17 358 0.0 3.2 0.00 0.03 0.03 57 1013.6
20260504045909 9 60 0.0 0.0 0.00 0.03 0.03 80 1013.0
20260504044409 8 60 0.0 0.0 0.00 0.03 0.03 81 1013.0
20260504042909 8 60 0.0 0.0 0.00 0.03 0.03 80 1012.9
20260504041409 8 60 0.0 0.0 0.00 0.03 0.03 80 1012.8
20260504035909 8 60 0.0 0.0 0.00 0.03 0.03 80 1012.8
20260504034519 8 60 0.0 0.0 0.00 0.03 0.03 80 1012.9
20260504034409 8 60 0.0 0.0 0.00 0.03 0.03 80 1012.9
20260504032909 8 60 0.0 0.0 0.00 0.03 0.03 79 1012.9
20260504031410 9 60 0.0 0.0 0.00 0.03 0.03 79 1012.9
20260504025910 9 60 0.0 0.0 0.00 0.03 0.03 79 1013.1
20260504024410 9 60 0.0 0.0 0.00 0.03 0.03 78 1013.1
20260504022910 9 60 0.0 0.0 0.00 0.03 0.03 79 1013.0
20260504021410 10 60 0.0 0.0 0.00 0.03 0.03 78 1013.2
20260504015910 10 60 0.0 0.0 0.00 0.03 0.03 78 1013.0
20260504014410 10 60 0.0 0.0 0.00 0.03 0.03 79 1013.0
20260504012910 10 60 0.0 0.0 0.00 0.03 0.03 78 1013.1
20260504011410 10 60 0.0 0.0 0.00 0.03 0.03 79 1013.1
20260504005910 10 60 0.0 0.0 0.00 0.03 0.03 78 1012.9
20260504004410 10 60 0.0 0.0 0.00 0.03 0.03 78 1012.9
20260504002910 10 60 0.0 0.0 0.00 0.03 0.03 78 1012.9
20260504001410 10 60 0.0 0.0 0.00 0.03 0.03 78 1012.9
20260503235910 10 60 0.0 0.0 0.00 0.03 0.03 78 1013.0
20260503234410 10 60 0.0 0.0 0.00 0.03 0.03 78 1013.1
20260503232910 10 60 0.0 0.0 0.00 0.03 0.03 79 1013.0
20260503231410 10 60 0.0 0.0 0.00 0.03 0.03 78 1013.1
20260503225910 10 60 0.0 0.0 0.00 0.03 0.03 78 1013.0
20260503224410 11 60 0.0 0.0 0.00 0.03 0.03 78 1013.0
20260503222910 11 60 0.0 0.0 0.00 0.03 0.03 77 1013.1
20260503221410 11 60 0.0 0.0 0.00 0.03 0.03 77 1013.0
20260503215910 11 60 0.0 0.0 0.00 0.03 0.03 77 1013.0
20260503214410 11 60 0.0 0.0 0.00 0.03 0.03 77 1013.1
20260503212910 11 60 0.0 0.0 0.00 0.03 0.03 75 1013.1
20260503211410 11 60 0.0 0.0 0.00 0.03 0.03 75 1013.1
20260503205910 12 60 0.0 0.0 0.00 0.03 0.03 75 1013.1
20260503204410 12 60 0.0 0.0 0.00 0.03 0.03 75 1013.0
20260503202910 12 60 0.0 0.0 0.00 0.03 0.03 75 1013.1
20260503201410 12 60 0.0 0.0 0.00 0.03 0.03 73 1013.1
20260503195910 13 52 0.0 0.0 0.00 0.03 0.03 73 1013.1
20260503194410 13 49 0.0 0.0 0.00 0.03 0.03 72 1013.1
20260503192910 13 49 0.0 0.0 0.00 0.03 0.03 72 1013.2
20260503191410 14 212 0.0 0.0 0.00 0.03 0.03 69 1013.1
20260503185910 15 212 0.0 0.0 0.00 0.03 0.03 68 1013.0
20260503184410 15 212 0.0 1.6 0.00 0.03 0.03 66 1012.9
20260503182910 15 291 1.6 3.2 0.00 0.03 0.03 68 1012.7
20260503181410 15 268 0.0 1.6 0.00 0.03 0.03 68 1012.6
20260503175910 15 234 0.0 3.2 0.00 0.03 0.03 68 1012.5
20260503174410 15 286 0.0 6.4 0.00 0.03 0.03 68 1012.5
20260503172910 15 219 0.0 6.4 0.00 0.03 0.03 69 1012.6